Location: Olda
(45.8833°N, 9.5500°E)
Time: 06:00:24
(UTC+00:00)

Ariane Rocket - Pass Details

Date: 03 March 2021
Orbit: 759 x 771 km, 98.7° (Epoch: 10 April)

Event Time Altitude Azimuth Distance (km) Brightness Sun altitude
Exits shadow 18:42:04 25° 120° (ESE) 1,520 4.0 -16.6°
Maximum altitude 18:44:29 41° 68° (ENE) 1,112 3.4 -17.0°
Drops below altitude 10° 18:49:15 10° 359° (N) 2,323 5.6 -17.8°
Sets 18:51:40 0° 352° (N) 3,252 6.5 -18.2°
